This is the latest recevied weather packets stored in our database for station/object KA9CBS. If no packets are shown the sender has not sent any weather packets the latest 10 day(s).
| Time | Temp. | Humidity | Pressure | Rain* | Wind** | Luminosity | Snow |
|---|---|---|---|---|---|---|---|
| 1787851561 | 27.78° C | 63% | 1018.4 hPa | 0 mm | - | 701 W/m² | - |
| 1787851256 | 27.22° C | 64% | 1018.4 hPa | 0 mm | - | 709 W/m² | - |
| 1787850951 | 27.78° C | 64% | 1018.7 hPa | 0 mm | - | 276 W/m² | - |
| 1787850647 | 27.78° C | 63% | 1018.5 hPa | 0 mm | - | 760 W/m² | - |
| 1787850342 | 27.22° C | 63% | 1018.5 hPa | 0 mm | - | 706 W/m² | - |
| 1787850033 | 27.22° C | 65% | 1018.5 hPa | 0 mm | - | 427 W/m² | - |
| 1787849732 | 27.78° C | 63% | 1018.5 hPa | 0 mm | - | 737 W/m² | - |
| 1787849427 | 27.22° C | 64% | 1018.5 hPa | 0 mm | - | 707 W/m² | - |
| 1787849126 | 27.78° C | 63% | 1018.2 hPa | 0 mm | - | 698 W/m² | - |
| 1787848821 | 27.22° C | 65% | 1018.6 hPa | 0 mm | - | 646 W/m² | - |
| 1787848520 | 27.22° C | 66% | 1018.2 hPa | 0 mm | - | 161 W/m² | - |
| 1787848215 | 27.78° C | 66% | 1018.5 hPa | 0 mm | - | 667 W/m² | - |
| 1787847914 | 27.22° C | 64% | 1018.3 hPa | 0 mm | - | 668 W/m² | - |
| 1787847609 | 27.22° C | 66% | 1018.6 hPa | 0 mm | - | 636 W/m² | - |
| 1787847304 | 27.22° C | 68% | 1018.8 hPa | 0 mm | - | 619 W/m² | - |
| 1787847001 | 27.22° C | 66% | 1018.7 hPa | 0 mm | - | 639 W/m² | - |
| 1787846700 | 27.22° C | 66% | 1018.7 hPa | 0 mm | - | 605 W/m² | - |
| 1787846395 | 27.22° C | 68% | 1018.7 hPa | 0 mm | - | 575 W/m² | - |
| 1787846091 | 26.67° C | 71% | 1018.7 hPa | 0 mm | - | 533 W/m² | - |
| 1787845787 | 26.67° C | 70% | 1018.7 hPa | 0 mm | - | 523 W/m² | - |
| 1787845476 | 27.22° C | 71% | 1018.6 hPa | 0 mm | - | 530 W/m² | - |
| 1787845172 | 26.67° C | 69% | 1018.7 hPa | 0 mm | - | 515 W/m² | - |
| 1787844867 | 27.22° C | 71% | 1018.6 hPa | 0 mm | - | 514 W/m² | - |
| 1787844566 | 26.67° C | 72% | 1018.7 hPa | 0 mm | - | 456 W/m² | - |
| 1787844262 | 26.67° C | 73% | 1018.6 hPa | 0 mm | - | 422 W/m² | - |
* Rain latest hour (hover to see other rain measurements)
** Current wind speed in m/s (hover to see current wind gust speed)